sat.trackr.live / text

‹ back to catalog

WESTPAC

NORAD 25398 · 1998-043E

PAYLOAD ACTIVE UNKNOWN

§ Identity

Operator
Country
AUS
Launch date
1998-07-10
Launch site
TYMSC
Launch vehicle
Mass (kg)
RCS (m²)
0.17

External: N2YO · Heavens-Above · Gunter

§ Orbital elements

Epoch: 2026-09-19T16:40:32.483424Z

Period
101.19 min
Inclination
99.0243°
Eccentricity
0.0000705
Mean motion
14.23057716 rev/d
Perigee alt
814.5 km
Apogee alt
815.5 km
Semi-major
7,193.2 km
B*
1.2817e-5
RAAN
251.0248°
Arg perigee
350.7840°
Mean anomaly
9.3324°
Rev number
46,438

§ Raw data

WESTPAC1 25398U 98043E   26262.69482041 -.00000018  00000+0  12817-4 0  99952 25398  99.0243 251.0248 0000705 350.7840   9.3324 14.23057716464389

JSON: /api/v1/satellites/25398 · /tle

For live sub-satellite position, see the globe view (requires WebGL).

§ Visibility from observer

Set your observer location to see the next 7 days of passes ≥ 10°. The values pass through the URL so the page stays shareable.

No JS? Fill the form by hand. The geolocation button needs JavaScript.